CUTE-1.7+APD II (CO-65)

Last updated on Mon Sep 15 2025 00:03:09 GMT+0000 (Coordinated Universal Time)

1 32785U 08021C 25257.21974455 .00004431 00000+0 31331-3 0 9999 2 32785 97.7950 229.2082 0007957 239.9366 120.1072 15.05387943943616
UTC large
Height (km)
Speed (km/s)
/
Latitude / Longitude
Inclination (degrees)
Orbital Period (minutes)
Azimuth
Elevation
Range (km)
Doppler Factor

Next 0 passes for location: London (51.5072 / 0.1276)

Sorry there are no passes over London.